Precipitable_Water
0.62 0.62 0.61 0.59 0.58 0.57 0.57 0.58 0.58 0.60 0.60 0.62 0.61 0.59 0.60 0.60 0.62 0.64 0.64 0.64 0.63 0.63 0.63 0.62 0.60 0.56 0.53 0.50 0.49 0.47 0.45 0.37 0.37 0.33 0.29 0.24 0.34 0.33 0.33 0.30 0.38 0.49 0.51 0.52 0.70 0.62 0.56 0.60 0.69 0.85 0.94 0.93 0.93 0.80 0.88 0.78 0.93 0.83 0.74 0.53 0.48 0.47 0.46 0.57 0.62 0.66 0.71 0.79 0.79 0.91 0.90 0.86 0.86 0.94 0.92 1.08 1.03 1.01 1.04 1.05 1.10 1.19 1.16 1.14 1.13 1.22 1.25 1.31
0.62 0.60 0.59 0.59 0.57 0.57 0.57 0.57 0.59 0.59 0.59 0.61 0.61 0.60 0.60 0.60 0.63 0.66 0.65 0.64 0.65 0.65 0.65 0.63 0.59 0.55 0.52 0.49 0.48 0.46 0.42 0.33 0.27 0.27 0.25 0.36 0.30 0.32 0.27 0.31 0.38 0.46 0.48 0.51 0.60 0.49 0.51 0.55 0.68 0.82 0.92 0.81 0.79 0.63 0.68 0.70 0.88 0.79 0.56 0.48 0.42 0.47 0.47 0.66 0.57 0.60 0.77 0.69 0.90 0.88 0.90 0.90 0.85 0.94 1.02 0.99 0.98 0.97 0.90 0.98 1.12 1.07 1.16 1.15 1.15 1.14 1.16 1.21
0.63 0.60 0.59 0.59 0.58 0.57 0.56 0.58 0.58 0.58 0.59 0.60 0.61 0.60 0.60 0.60 0.64 0.67 0.66 0.65 0.66 0.67 0.65 0.62 0.57 0.53 0.52 0.50 0.46 0.45 0.40 0.29 0.26 0.18 0.20 0.33 0.33 0.29 0.27 0.30 0.37 0.44 0.41 0.51 0.55 0.51 0.53 0.64 0.66 0.85 0.83 0.73 0.61 0.54 0.63 0.61 0.70 0.67 0.55 0.46 0.45 0.47 0.52 0.56 0.70 0.77 0.80 0.77 0.83 0.85 0.87 0.83 0.85 0.88 1.07 1.02 0.98 1.01 0.88 0.88 0.95 0.96 0.96 1.04 1.09 1.12 1.10 1.12
0.64 0.61 0.59 0.58 0.57 0.56 0.56 0.57 0.58 0.58 0.58 0.60 0.60 0.60 0.60 0.61 0.65 0.68 0.67 0.65 0.64 0.64 0.64 0.59 0.54 0.54 0.52 0.49 0.49 0.48 0.38 0.25 0.15 0.16 0.33 0.33 0.29 0.28 0.26 0.31 0.36 0.39 0.40 0.57 0.51 0.47 0.50 0.52 0.61 0.78 0.76 0.64 0.54 0.52 0.54 0.57 0.64 0.51 0.52 0.45 0.47 0.50 0.52 0.60 0.65 0.74 0.73 0.81 0.78 0.82 0.80 0.79 0.79 0.84 1.03 0.86 1.00 1.03 0.96 1.01 0.95 0.93 1.02 1.04 1.06 1.12 1.11 1.11
0.65 0.60 0.57 0.56 0.55 0.56 0.56 0.57 0.58 0.58 0.58 0.59 0.60 0.60 0.60 0.62 0.66 0.68 0.66 0.63 0.61 0.62 0.60 0.55 0.54 0.52 0.52 0.53 0.46 0.50 0.37 0.14 0.22 0.41 0.44 0.40 0.30 0.26 0.26 0.31 0.36 0.35 0.41 0.54 0.47 0.41 0.39 0.43 0.60 0.71 0.67 0.53 0.45 0.48 0.47 0.52 0.53 0.56 0.55 0.52 0.58 0.59 0.51 0.64 0.69 0.78 0.78 0.81 0.80 0.81 0.84 0.75 0.86 0.91 0.88 1.03 0.95 0.96 1.04 1.01 1.07 1.09 1.12 1.07 1.05 1.10 1.15 1.13
0.64 0.60 0.57 0.56 0.55 0.54 0.55 0.56 0.58 0.58 0.58 0.58 0.59 0.59 0.60 0.63 0.68 0.68 0.64 0.60 0.60 0.59 0.55 0.53 0.53 0.52 0.54 0.53 0.53 0.46 0.27 0.13 0.42 0.58 0.41 0.36 0.32 0.27 0.26 0.33 0.34 0.37 0.41 0.45 0.39 0.33 0.34 0.45 0.54 0.57 0.52 0.49 0.41 0.40 0.41 0.43 0.50 0.48 0.51 0.54 0.64 0.63 0.58 0.67 0.69 0.68 0.75 0.78 0.82 0.83 0.76 0.90 0.90 0.88 1.06 1.06 1.01 1.07 1.14 1.09 1.09 1.15 1.16 1.16 1.15 1.13 1.14 1.15
0.63 0.60 0.58 0.56 0.54 0.53 0.54 0.56 0.57 0.58 0.58 0.58 0.59 0.59 0.60 0.65 0.68 0.67 0.64 0.58 0.56 0.53 0.51 0.49 0.49 0.50 0.49 0.56 0.50 0.38 0.22 0.24 0.31 0.47 0.44 0.40 0.31 0.30 0.28 0.33 0.41 0.39 0.40 0.41 0.33 0.31 0.32 0.43 0.56 0.56 0.51 0.43 0.41 0.38 0.33 0.38 0.47 0.53 0.53 0.58 0.55 0.60 0.63 0.72 0.66 0.75 0.77 0.79 0.73 0.76 0.90 0.80 0.94 0.88 0.97 0.96 0.99 1.06 1.11 1.09 1.14 1.17 1.21 1.15 1.11 1.15 1.20 1.16
0.62 0.61 0.57 0.55 0.55 0.53 0.53 0.55 0.56 0.58 0.58 0.58 0.59 0.59 0.59 0.67 0.69 0.67 0.64 0.56 0.50 0.47 0.47 0.46 0.44 0.44 0.48 0.42 0.37 0.23 0.20 0.18 0.49 0.49 0.38 0.41 0.33 0.29 0.32 0.32 0.37 0.36 0.38 0.38 0.29 0.29 0.33 0.42 0.52 0.57 0.49 0.41 0.38 0.36 0.38 0.36 0.47 0.54 0.52 0.59 0.61 0.61 0.66 0.69 0.73 0.72 0.69 0.70 0.77 0.87 0.88 0.82 0.88 0.92 1.03 0.91 1.01 1.03 1.07 1.12 1.15 1.16 1.17 1.13 1.11 1.15 1.14 1.15
0.61 0.61 0.59 0.56 0.54 0.53 0.52 0.52 0.55 0.57 0.57 0.59 0.59 0.58 0.59 0.68 0.69 0.66 0.63 0.55 0.47 0.47 0.47 0.45 0.41 0.42 0.46 0.40 0.28 0.27 0.23 0.27 0.64 0.41 0.42 0.32 0.30 0.28 0.30 0.28 0.32 0.32 0.34 0.33 0.28 0.29 0.32 0.43 0.54 0.56 0.43 0.42 0.38 0.38 0.34 0.39 0.47 0.55 0.58 0.60 0.61 0.63 0.67 0.71 0.68 0.65 0.68 0.71 0.78 0.81 0.82 0.84 0.94 0.99 0.92 0.95 1.00 1.05 1.10 1.09 1.11 1.11 1.07 1.09 1.10 1.12 1.11 1.16
0.59 0.61 0.60 0.57 0.54 0.52 0.52 0.52 0.54 0.57 0.57 0.58 0.59 0.58 0.59 0.69 0.69 0.66 0.62 0.54 0.46 0.49 0.48 0.41 0.41 0.40 0.34 0.26 0.25 0.17 0.44 0.56 0.44 0.47 0.58 0.42 0.34 0.26 0.27 0.29 0.27 0.29 0.29 0.29 0.27 0.27 0.38 0.50 0.56 0.57 0.46 0.41 0.40 0.38 0.41 0.49 0.53 0.60 0.55 0.63 0.65 0.66 0.66 0.68 0.66 0.66 0.71 0.74 0.82 0.76 0.77 0.75 0.86 0.88 0.69 0.96 1.00 1.07 1.07 1.04 1.08 1.07 1.07 1.08 1.12 1.15 1.13 1.19
0.57 0.59 0.59 0.57 0.54 0.52 0.51 0.52 0.53 0.55 0.58 0.57 0.58 0.59 0.60 0.69 0.69 0.65 0.61 0.54 0.48 0.52 0.52 0.39 0.38 0.35 0.26 0.27 0.25 0.15 0.54 0.58 0.48 0.52 0.43 0.52 0.38 0.24 0.23 0.30 0.28 0.28 0.28 0.27 0.24 0.35 0.51 0.56 0.58 0.46 0.39 0.39 0.40 0.39 0.43 0.55 0.58 0.59 0.66 0.64 0.63 0.69 0.71 0.67 0.68 0.70 0.77 0.72 0.80 0.77 0.70 0.84 0.86 0.81 0.80 0.89 1.01 1.09 1.07 1.04 1.09 1.11 1.11 1.15 1.14 1.08 1.14 1.22
0.55 0.58 0.59 0.58 0.55 0.53 0.51 0.51 0.52 0.54 0.56 0.57 0.57 0.58 0.61 0.69 0.69 0.66 0.62 0.56 0.50 0.53 0.54 0.45 0.36 0.34 0.37 0.28 0.22 0.30 0.51 0.55 0.49 0.47 0.54 0.48 0.37 0.26 0.25 0.31 0.28 0.28 0.25 0.22 0.23 0.37 0.50 0.56 0.53 0.41 0.40 0.38 0.40 0.40 0.45 0.58 0.63 0.67 0.68 0.64 0.67 0.71 0.67 0.68 0.70 0.75 0.79 0.71 0.82 0.79 0.76 0.75 0.77 0.76 0.86 0.96 1.04 1.02 1.02 1.05 1.11 1.10 1.12 1.16 1.16 1.11 1.17 1.23
0.55 0.57 0.58 0.57 0.55 0.52 0.51 0.51 0.52 0.52 0.55 0.56 0.57 0.57 0.62 0.69 0.69 0.66 0.62 0.56 0.54 0.54 0.54 0.57 0.44 0.40 0.36 0.21 0.15 0.32 0.39 0.63 0.57 0.45 0.45 0.53 0.45 0.34 0.33 0.33 0.26 0.27 0.24 0.23 0.25 0.42 0.56 0.53 0.49 0.41 0.41 0.38 0.41 0.37 0.48 0.60 0.66 0.71 0.68 0.68 0.65 0.60 0.58 0.75 0.80 0.73 0.80 0.79 0.88 0.88 0.60 0.61 0.66 0.80 0.96 0.99 1.04 1.03 1.02 1.04 1.03 1.05 1.09 1.09 1.14 1.11 1.22 1.24
0.54 0.56 0.57 0.57 0.55 0.52 0.51 0.51 0.51 0.51 0.53 0.56 0.56 0.57 0.63 0.69 0.69 0.67 0.61 0.57 0.59 0.56 0.60 0.64 0.65 0.43 0.35 0.45 0.24 0.30 0.34 0.54 0.52 0.42 0.45 0.48 0.41 0.32 0.32 0.33 0.28 0.28 0.26 0.24 0.35 0.51 0.57 0.54 0.47 0.44 0.40 0.42 0.40 0.67 0.54 0.62 0.66 0.58 0.67 0.67 0.61 0.52 0.51 0.67 0.77 0.70 0.73 0.75 0.91 0.87 0.68 0.61 0.71 0.87 1.00 1.05 1.02 1.04 0.95 1.01 1.06 1.10 1.13 1.08 1.13 1.14 1.17 1.20
0.53 0.55 0.56 0.56 0.55 0.52 0.51 0.51 0.51 0.51 0.52 0.54 0.56 0.57 0.64 0.70 0.71 0.69 0.64 0.59 0.60 0.60 0.61 0.67 0.60 0.52 0.44 0.49 0.53 0.41 0.34 0.49 0.44 0.39 0.44 0.38 0.33 0.28 0.27 0.27 0.28 0.30 0.27 0.33 0.43 0.55 0.55 0.50 0.43 0.37 0.34 0.41 0.46 0.53 0.50 0.63 0.57 0.63 0.55 0.45 0.65 0.56 0.58 0.60 0.76 0.67 0.73 0.59 0.90 0.81 0.63 0.63 0.74 0.81 0.97 1.02 1.07 1.04 0.96 1.07 1.07 1.14 1.13 1.13 1.12 1.16 1.19 1.20
0.54 0.54 0.55 0.56 0.55 0.53 0.51 0.50 0.50 0.51 0.51 0.53 0.55 0.57 0.68 0.73 0.72 0.71 0.70 0.65 0.62 0.64 0.68 0.58 0.61 0.53 0.34 0.49 0.41 0.40 0.38 0.35 0.38 0.43 0.41 0.39 0.30 0.21 0.23 0.21 0.25 0.27 0.33 0.52 0.53 0.54 0.51 0.42 0.33 0.37 0.33 0.37 0.40 0.45 0.52 0.57 0.52 0.59 0.56 0.50 0.55 0.60 0.64 0.59 0.71 0.66 0.85 0.69 0.77 0.84 0.71 0.69 0.78 0.81 0.91 1.05 1.10 1.07 0.97 0.92 1.08 1.14 1.17 1.15 1.17 1.19 1.23 1.27
0.53 0.54 0.54 0.55 0.55 0.54 0.51 0.50 0.50 0.50 0.51 0.51 0.54 0.60 0.72 0.76 0.76 0.74 0.72 0.66 0.61 0.66 0.62 0.60 0.62 0.65 0.34 0.49 0.58 0.26 0.29 0.47 0.49 0.41 0.37 0.41 0.28 0.22 0.21 0.22 0.23 0.29 0.43 0.50 0.48 0.48 0.45 0.35 0.36 0.33 0.33 0.34 0.37 0.44 0.42 0.44 0.47 0.56 0.54 0.55 0.59 0.54 0.64 0.57 0.66 0.72 0.74 0.68 0.77 0.66 0.69 0.72 0.75 0.80 0.87 0.92 0.92 0.92 0.89 0.92 0.97 1.01 1.15 1.14 1.21 1.25 1.28 1.22
0.53 0.54 0.54 0.54 0.56 0.54 0.51 0.49 0.49 0.51 0.50 0.51 0.53 0.64 0.70 0.76 0.79 0.80 0.73 0.60 0.70 0.66 0.64 0.66 0.56 0.43 0.27 0.45 0.28 0.25 0.39 0.49 0.42 0.39 0.35 0.45 0.35 0.27 0.22 0.22 0.25 0.29 0.35 0.37 0.46 0.41 0.38 0.32 0.34 0.30 0.28 0.33 0.34 0.40 0.38 0.36 0.47 0.51 0.45 0.51 0.53 0.54 0.65 0.62 0.63 0.69 0.76 0.62 0.79 0.65 0.80 0.72 0.72 0.83 0.85 0.87 0.90 0.87 0.83 0.89 0.89 0.93 1.00 1.07 1.10 1.23 1.23 1.19
0.52 0.52 0.53 0.53 0.55 0.54 0.51 0.49 0.48 0.49 0.51 0.49 0.59 0.73 0.78 0.84 0.83 0.80 0.61 0.64 0.47 0.43 0.26 0.36 0.36 0.25 0.31 0.38 0.31 0.33 0.41 0.49 0.42 0.35 0.28 0.35 0.40 0.31 0.26 0.25 0.26 0.28 0.27 0.31 0.37 0.40 0.35 0.31 0.28 0.28 0.24 0.28 0.33 0.40 0.39 0.42 0.40 0.45 0.47 0.47 0.53 0.52 0.57 0.60 0.67 0.72 0.67 0.65 0.65 0.70 0.70 0.73 0.73 0.80 0.80 0.82 0.84 0.85 0.83 0.87 0.89 0.91 0.92 0.95 1.07 1.11 1.13 1.17
0.51 0.51 0.51 0.52 0.54 0.54 0.51 0.47 0.48 0.48 0.51 0.48 0.52 0.70 0.70 0.74 0.66 0.57 0.62 0.60 0.44 0.39 0.43 0.46 0.44 0.40 0.44 0.35 0.28 0.48 0.55 0.47 0.34 0.29 0.31 0.32 0.33 0.29 0.25 0.23 0.24 0.29 0.28 0.25 0.36 0.37 0.36 0.26 0.21 0.23 0.25 0.26 0.34 0.40 0.42 0.42 0.43 0.42 0.42 0.45 0.52 0.51 0.57 0.65 0.66 0.72 0.66 0.69 0.64 0.72 0.76 0.77 0.79 0.81 0.80 0.82 0.82 0.85 0.80 0.82 0.84 0.89 0.89 0.92 1.01 1.04 1.10 1.11
0.51 0.50 0.50 0.51 0.53 0.53 0.51 0.47 0.47 0.48 0.50 0.49 0.53 0.52 0.45 0.47 0.37 0.41 0.42 0.40 0.45 0.43 0.39 0.41 0.43 0.39 0.48 0.40 0.37 0.43 0.36 0.34 0.37 0.31 0.31 0.30 0.32 0.26 0.22 0.23 0.23 0.23 0.27 0.28 0.33 0.39 0.36 0.26 0.24 0.25 0.28 0.26 0.29 0.34 0.39 0.37 0.31 0.32 0.37 0.37 0.40 0.42 0.49 0.58 0.63 0.69 0.70 0.58 0.67 0.71 0.79 0.80 0.76 0.81 0.84 0.83 0.73 0.80 0.82 0.80 0.80 0.86 0.89 0.93 0.93 0.99 1.06 1.09
0.51 0.50 0.50 0.49 0.50 0.52 0.50 0.46 0.45 0.47 0.49 0.52 0.52 0.50 0.53 0.60 0.61 0.60 0.51 0.31 0.40 0.45 0.42 0.41 0.45 0.40 0.51 0.47 0.44 0.38 0.34 0.33 0.31 0.33 0.35 0.28 0.29 0.23 0.24 0.23 0.23 0.21 0.27 0.28 0.32 0.32 0.30 0.26 0.28 0.26 0.29 0.29 0.28 0.28 0.32 0.30 0.28 0.30 0.34 0.36 0.39 0.41 0.47 0.57 0.57 0.61 0.66 0.57 0.65 0.69 0.66 0.74 0.78 0.80 0.85 0.82 0.76 0.79 0.88 0.85 0.82 0.84 0.86 0.89 0.89 0.97 1.00 1.05
0.51 0.51 0.50 0.49 0.48 0.50 0.49 0.46 0.44 0.45 0.49 0.51 0.47 0.55 0.54 0.61 0.64 0.67 0.60 0.44 0.31 0.33 0.34 0.40 0.34 0.35 0.39 0.47 0.46 0.39 0.29 0.30 0.26 0.32 0.35 0.28 0.29 0.25 0.26 0.21 0.22 0.23 0.25 0.27 0.25 0.27 0.25 0.26 0.32 0.30 0.29 0.28 0.27 0.27 0.26 0.27 0.28 0.28 0.33 0.31 0.31 0.37 0.40 0.47 0.56 0.59 0.59 0.56 0.61 0.76 0.63 0.74 0.85 0.86 0.88 0.85 0.83 0.79 0.81 0.86 0.85 0.85 0.81 0.86 0.87 0.95 0.95 0.99
0.50 0.50 0.48 0.47 0.48 0.48 0.48 0.44 0.44 0.46 0.51 0.51 0.51 0.50 0.49 0.57 0.63 0.63 0.53 0.40 0.34 0.36 0.36 0.33 0.37 0.36 0.36 0.37 0.45 0.35 0.28 0.30 0.30 0.29 0.38 0.28 0.25 0.25 0.25 0.21 0.22 0.23 0.23 0.25 0.28 0.26 0.24 0.25 0.31 0.31 0.29 0.27 0.27 0.27 0.26 0.25 0.24 0.25 0.28 0.29 0.30 0.30 0.32 0.40 0.50 0.54 0.56 0.59 0.55 0.74 0.68 0.74 0.82 0.79 0.85 0.91 0.89 0.85 0.86 0.81 0.86 0.88 0.87 0.87 0.91 0.97 0.96 0.98
0.49 0.48 0.47 0.47 0.45 0.49 0.44 0.44 0.44 0.60 0.44 0.42 0.41 0.44 0.54 0.67 0.65 0.65 0.51 0.40 0.37 0.26 0.37 0.36 0.34 0.36 0.40 0.49 0.50 0.32 0.27 0.33 0.29 0.35 0.35 0.31 0.28 0.24 0.25 0.24 0.26 0.21 0.25 0.26 0.28 0.27 0.24 0.25 0.27 0.31 0.30 0.27 0.28 0.27 0.25 0.24 0.24 0.26 0.26 0.28 0.30 0.31 0.30 0.31 0.40 0.50 0.52 0.51 0.51 0.52 0.52 0.60 0.87 0.88 0.89 0.89 0.87 0.85 0.90 0.84 0.83 0.87 0.86 0.84 0.83 0.88 0.93 1.02
0.48 0.47 0.46 0.45 0.46 0.47 0.44 0.37 0.55 0.48 0.38 0.38 0.45 0.69 0.70 0.70 0.67 0.65 0.54 0.37 0.20 0.35 0.35 0.25 0.34 0.30 0.45 0.39 0.44 0.32 0.27 0.26 0.30 0.34 0.35 0.29 0.35 0.26 0.29 0.23 0.26 0.22 0.24 0.25 0.24 0.24 0.23 0.25 0.27 0.27 0.26 0.27 0.26 0.26 0.25 0.24 0.27 0.26 0.27 0.29 0.29 0.27 0.28 0.33 0.34 0.44 0.43 0.40 0.53 0.53 0.47 0.53 0.79 0.87 0.88 0.79 0.75 0.82 0.92 0.86 0.89 0.90 0.87 0.83 0.83 0.88 0.90 0.96
0.47 0.46 0.44 0.45 0.45 0.49 0.35 0.27 0.40 0.39 0.37 0.43 0.64 0.71 0.70 0.66 0.74 0.65 0.40 0.29 0.15 0.36 0.29 0.35 0.24 0.35 0.38 0.43 0.37 0.32 0.17 0.21 0.31 0.35 0.31 0.29 0.31 0.32 0.27 0.23 0.24 0.29 0.28 0.28 0.21 0.18 0.22 0.22 0.23 0.25 0.27 0.25 0.24 0.23 0.25 0.24 0.26 0.29 0.33 0.32 0.31 0.30 0.28 0.32 0.35 0.47 0.44 0.43 0.48 0.57 0.54 0.48 0.51 0.62 0.84 0.84 0.82 0.81 0.81 0.82 0.79 0.86 0.85 0.85 0.88 0.90 0.93 0.94
0.45 0.44 0.44 0.45 0.44 0.47 0.40 0.41 0.36 0.33 0.38 0.43 0.55 0.56 0.60 0.63 0.71 0.69 0.30 0.24 0.22 0.40 0.26 0.27 0.29 0.46 0.37 0.42 0.35 0.23 0.24 0.32 0.22 0.29 0.32 0.27 0.35 0.27 0.26 0.22 0.22 0.25 0.27 0.24 0.14 0.18 0.24 0.27 0.25 0.25 0.25 0.24 0.23 0.23 0.28 0.27 0.29 0.42 0.40 0.31 0.30 0.27 0.27 0.29 0.36 0.41 0.42 0.43 0.41 0.54 0.58 0.50 0.46 0.53 0.77 0.83 0.76 0.83 0.78 0.82 0.85 0.83 0.85 0.82 0.85 0.89 0.91 0.92
0.43 0.43 0.43 0.45 0.43 0.41 0.51 0.45 0.40 0.34 0.38 0.48 0.54 0.57 0.57 0.65 0.64 0.51 0.43 0.26 0.34 0.32 0.45 0.28 0.36 0.38 0.37 0.37 0.28 0.23 0.31 0.32 0.22 0.28 0.31 0.29 0.33 0.30 0.20 0.25 0.23 0.25 0.24 0.21 0.16 0.20 0.26 0.29 0.27 0.26 0.24 0.22 0.26 0.29 0.34 0.30 0.26 0.33 0.50 0.38 0.33 0.31 0.29 0.31 0.39 0.38 0.44 0.45 0.41 0.49 0.68 0.60 0.55 0.55 0.54 0.63 0.64 0.75 0.81 0.84 0.88 0.89 0.88 0.85 0.82 0.85 0.91 0.93
0.42 0.41 0.43 0.46 0.42 0.44 0.52 0.52 0.42 0.37 0.45 0.49 0.52 0.58 0.56 0.59 0.54 0.30 0.31 0.18 0.40 0.26 0.28 0.32 0.27 0.27 0.34 0.27 0.23 0.28 0.31 0.27 0.28 0.33 0.29 0.24 0.28 0.34 0.26 0.30 0.23 0.20 0.22 0.19 0.22 0.31 0.34 0.33 0.34 0.27 0.25 0.30 0.32 0.34 0.32 0.31 0.29 0.44 0.39 0.39 0.35 0.33 0.35 0.41 0.44 0.45 0.42 0.37 0.42 0.47 0.49 0.51 0.48 0.54 0.53 0.52 0.64 0.75 0.86 0.95 0.93 0.86 0.86 0.89 0.86 0.86 0.94 0.97
0.41 0.40 0.41 0.47 0.37 0.39 0.39 0.28 0.35 0.44 0.55 0.59 0.59 0.53 0.58 0.58 0.39 0.29 0.22 0.27 0.32 0.29 0.31 0.27 0.25 0.30 0.28 0.25 0.20 0.27 0.30 0.27 0.25 0.30 0.23 0.26 0.27 0.27 0.28 0.22 0.26 0.18 0.22 0.24 0.26 0.32 0.32 0.32 0.29 0.29 0.33 0.35 0.33 0.32 0.33 0.32 0.32 0.35 0.35 0.35 0.36 0.37 0.41 0.42 0.41 0.43 0.37 0.35 0.40 0.39 0.42 0.51 0.39 0.42 0.47 0.52 0.59 0.63 0.63 0.61 0.76 0.88 0.90 0.94 0.94 0.89 0.95 0.95
0.40 0.39 0.40 0.42 0.41 0.47 0.32 0.26 0.47 0.50 0.57 0.60 0.54 0.46 0.51 0.38 0.38 0.24 0.30 0.45 0.22 0.26 0.23 0.23 0.26 0.26 0.27 0.26 0.23 0.23 0.25 0.25 0.27 0.25 0.21 0.20 0.22 0.19 0.20 0.18 0.21 0.17 0.18 0.22 0.25 0.30 0.29 0.30 0.33 0.32 0.36 0.37 0.34 0.31 0.30 0.31 0.34 0.31 0.34 0.34 0.34 0.33 0.35 0.30 0.34 0.32 0.30 0.23 0.37 0.40 0.38 0.34 0.34 0.39 0.42 0.48 0.56 0.64 0.63 0.58 0.63 0.79 0.97 0.99 1.00 0.96 0.95 1.00
0.39 0.38 0.38 0.37 0.42 0.40 0.38 0.32 0.33 0.39 0.44 0.49 0.47 0.44 0.39 0.35 0.27 0.28 0.30 0.38 0.24 0.28 0.27 0.26 0.25 0.24 0.27 0.25 0.23 0.24 0.28 0.23 0.30 0.26 0.24 0.21 0.22 0.19 0.20 0.25 0.27 0.27 0.20 0.23 0.26 0.24 0.25 0.30 0.31 0.31 0.33 0.34 0.33 0.25 0.27 0.25 0.30 0.29 0.30 0.32 0.32 0.27 0.30 0.25 0.28 0.32 0.32 0.34 0.35 0.37 0.42 0.34 0.39 0.38 0.44 0.41 0.45 0.45 0.56 0.61 0.58 0.72 0.96 1.03 1.03 1.04 0.98 1.04
0.38 0.37 0.34 0.35 0.42 0.41 0.38 0.43 0.43 0.44 0.40 0.41 0.39 0.36 0.35 0.32 0.27 0.43 0.32 0.29 0.30 0.34 0.33 0.26 0.26 0.25 0.27 0.22 0.24 0.25 0.21 0.26 0.27 0.24 0.21 0.18 0.20 0.18 0.19 0.28 0.30 0.29 0.28 0.26 0.25 0.21 0.22 0.22 0.26 0.29 0.26 0.31 0.30 0.29 0.31 0.29 0.30 0.29 0.33 0.31 0.32 0.28 0.27 0.26 0.25 0.22 0.27 0.27 0.33 0.37 0.35 0.33 0.30 0.32 0.40 0.39 0.49 0.51 0.54 0.61 0.64 0.63 0.80 1.13 1.15 1.14 1.03 1.01
0.38 0.34 0.39 0.42 0.42 0.42 0.44 0.45 0.48 0.47 0.40 0.38 0.34 0.31 0.27 0.28 0.33 0.36 0.33 0.35 0.29 0.40 0.34 0.30 0.25 0.23 0.24 0.25 0.28 0.26 0.23 0.22 0.26 0.22 0.19 0.20 0.20 0.20 0.19 0.25 0.29 0.29 0.30 0.25 0.26 0.24 0.24 0.25 0.30 0.30 0.31 0.30 0.28 0.31 0.33 0.30 0.30 0.30 0.29 0.31 0.29 0.28 0.33 0.27 0.31 0.31 0.30 0.30 0.35 0.38 0.37 0.40 0.34 0.67 0.56 0.55 0.53 0.50 0.49 0.51 0.57 0.66 0.61 0.81 1.14 1.12 1.08 1.04
0.35 0.34 0.39 0.35 0.38 0.48 0.49 0.50 0.49 0.46 0.41 0.35 0.30 0.27 0.27 0.34 0.28 0.32 0.38 0.40 0.34 0.32 0.33 0.28 0.25 0.21 0.24 0.23 0.28 0.26 0.24 0.24 0.24 0.24 0.21 0.23 0.25 0.23 0.24 0.27 0.28 0.28 0.30 0.27 0.29 0.22 0.25 0.26 0.33 0.31 0.32 0.31 0.29 0.31 0.30 0.31 0.23 0.30 0.28 0.25 0.29 0.34 0.33 0.31 0.31 0.32 0.33 0.31 0.29 0.33 0.36 0.39 0.41 0.36 0.42 0.46 0.47 0.47 0.50 0.54 0.56 0.64 0.69 0.72 0.93 1.08 1.07 1.06
0.32 0.35 0.29 0.36 0.45 0.50 0.52 0.51 0.50 0.41 0.40 0.36 0.28 0.25 0.32 0.37 0.37 0.37 0.44 0.41 0.48 0.42 0.36 0.29 0.23 0.21 0.22 0.21 0.25 0.25 0.24 0.25 0.27 0.24 0.22 0.25 0.25 0.27 0.27 0.28 0.31 0.29 0.31 0.32 0.30 0.31 0.27 0.28 0.34 0.32 0.28 0.30 0.33 0.32 0.29 0.29 0.33 0.33 0.28 0.29 0.33 0.37 0.36 0.33 0.27 0.32 0.28 0.23 0.26 0.31 0.31 0.35 0.38 0.32 0.46 0.52 0.46 0.46 0.50 0.46 0.52 0.60 0.75 0.78 0.81 0.94 1.04 1.03
0.35 0.33 0.34 0.30 0.31 0.48 0.55 0.54 0.49 0.39 0.35 0.32 0.26 0.28 0.39 0.37 0.42 0.42 0.50 0.50 0.48 0.45 0.42 0.35 0.29 0.23 0.22 0.22 0.24 0.26 0.25 0.21 0.26 0.24 0.25 0.26 0.25 0.29 0.30 0.28 0.30 0.31 0.33 0.37 0.31 0.32 0.30 0.28 0.32 0.34 0.33 0.32 0.31 0.30 0.30 0.31 0.32 0.31 0.31 0.39 0.31 0.28 0.26 0.30 0.28 0.25 0.28 0.30 0.30 0.32 0.33 0.35 0.34 0.40 0.46 0.50 0.44 0.44 0.50 0.50 0.43 0.50 0.64 0.72 0.78 0.83 1.02 1.05
0.37 0.40 0.29 0.49 0.49 0.56 0.54 0.56 0.49 0.36 0.31 0.26 0.26 0.26 0.34 0.39 0.48 0.43 0.51 0.51 0.53 0.48 0.39 0.39 0.33 0.26 0.25 0.22 0.25 0.27 0.26 0.19 0.25 0.23 0.25 0.28 0.24 0.30 0.29 0.31 0.30 0.30 0.33 0.34 0.30 0.32 0.33 0.28 0.34 0.37 0.34 0.33 0.32 0.29 0.24 0.26 0.32 0.37 0.36 0.36 0.32 0.32 0.32 0.29 0.29 0.29 0.31 0.28 0.28 0.26 0.30 0.29 0.35 0.33 0.45 0.51 0.50 0.46 0.47 0.49 0.45 0.46 0.53 0.68 0.77 0.82 0.94 1.03
0.39 0.35 0.34 0.58 0.59 0.58 0.63 0.55 0.44 0.35 0.28 0.22 0.24 0.26 0.36 0.37 0.47 0.49 0.52 0.47 0.46 0.44 0.35 0.37 0.41 0.34 0.24 0.25 0.26 0.24 0.25 0.22 0.25 0.25 0.23 0.31 0.25 0.35 0.29 0.32 0.31 0.30 0.31 0.32 0.31 0.32 0.30 0.32 0.29 0.36 0.37 0.35 0.26 0.26 0.24 0.28 0.26 0.26 0.26 0.31 0.33 0.30 0.34 0.37 0.40 0.37 0.32 0.30 0.28 0.28 0.27 0.34 0.39 0.39 0.42 0.44 0.45 0.48 0.44 0.48 0.50 0.44 0.49 0.56 0.74 0.84 0.90 1.00
0.36 0.30 0.34 0.61 0.63 0.63 0.59 0.50 0.36 0.29 0.26 0.26 0.28 0.30 0.36 0.38 0.45 0.49 0.50 0.46 0.43 0.45 0.46 0.42 0.48 0.41 0.32 0.25 0.25 0.27 0.25 0.22 0.24 0.26 0.23 0.30 0.28 0.28 0.33 0.32 0.33 0.31 0.30 0.31 0.29 0.30 0.29 0.29 0.27 0.35 0.32 0.32 0.31 0.31 0.27 0.28 0.31 0.29 0.28 0.28 0.31 0.30 0.29 0.27 0.30 0.39 0.34 0.28 0.24 0.25 0.22 0.31 0.42 0.48 0.45 0.46 0.51 0.48 0.49 0.45 0.50 0.54 0.52 0.52 0.68 0.88 0.93 0.98
0.32 0.26 0.35 0.53 0.54 0.54 0.46 0.36 0.33 0.33 0.28 0.25 0.24 0.30 0.37 0.48 0.46 0.48 0.48 0.47 0.39 0.41 0.46 0.42 0.47 0.48 0.47 0.34 0.32 0.29 0.27 0.25 0.22 0.24 0.25 0.27 0.31 0.31 0.35 0.35 0.33 0.33 0.29 0.26 0.25 0.29 0.28 0.30 0.28 0.32 0.34 0.34 0.32 0.32 0.31 0.30 0.32 0.36 0.35 0.31 0.32 0.33 0.34 0.32 0.26 0.30 0.33 0.33 0.33 0.32 0.28 0.31 0.48 0.48 0.48 0.52 0.50 0.48 0.50 0.49 0.49 0.53 0.56 0.57 0.72 0.84 0.94 1.00
0.38 0.32 0.54 0.56 0.57 0.55 0.46 0.38 0.35 0.31 0.27 0.28 0.32 0.33 0.41 0.52 0.51 0.52 0.47 0.46 0.40 0.40 0.40 0.40 0.45 0.45 0.47 0.42 0.33 0.30 0.28 0.25 0.25 0.23 0.26 0.25 0.29 0.31 0.37 0.36 0.33 0.31 0.30 0.29 0.27 0.29 0.29 0.27 0.28 0.28 0.33 0.37 0.35 0.31 0.32 0.32 0.33 0.34 0.34 0.35 0.35 0.32 0.34 0.34 0.33 0.35 0.34 0.39 0.35 0.33 0.30 0.35 0.53 0.53 0.51 0.53 0.54 0.49 0.54 0.53 0.50 0.49 0.53 0.59 0.73 0.85 0.87 0.94
0.37 0.39 0.40 0.54 0.50 0.53 0.46 0.35 0.35 0.31 0.29 0.30 0.30 0.34 0.46 0.51 0.54 0.50 0.44 0.46 0.42 0.39 0.37 0.39 0.42 0.43 0.46 0.46 0.43 0.35 0.33 0.28 0.29 0.26 0.25 0.27 0.26 0.35 0.36 0.37 0.35 0.31 0.29 0.29 0.25 0.29 0.24 0.26 0.29 0.27 0.26 0.30 0.33 0.35 0.33 0.35 0.34 0.32 0.33 0.34 0.33 0.35 0.37 0.38 0.38 0.40 0.36 0.41 0.41 0.37 0.31 0.32 0.52 0.73 0.58 0.57 0.59 0.51 0.53 0.56 0.56 0.52 0.53 0.61 0.83 0.91 0.94 0.96
0.32 0.35 0.33 0.48 0.46 0.47 0.36 0.42 0.45 0.38 0.31 0.30 0.32 0.36 0.45 0.47 0.51 0.52 0.47 0.45 0.45 0.41 0.38 0.39 0.41 0.46 0.43 0.49 0.45 0.43 0.41 0.34 0.31 0.28 0.27 0.30 0.39 0.40 0.37 0.34 0.33 0.32 0.31 0.33 0.32 0.33 0.27 0.30 0.26 0.24 0.23 0.21 0.24 0.25 0.26 0.27 0.27 0.29 0.31 0.35 0.36 0.34 0.34 0.34 0.32 0.38 0.34 0.40 0.40 0.36 0.37 0.44 0.56 0.58 0.60 0.57 0.58 0.56 0.53 0.53 0.56 0.57 0.60 0.58 0.73 0.98 1.02 1.01
0.42 0.36 0.40 0.26 0.40 0.38 0.39 0.48 0.51 0.55 0.51 0.43 0.37 0.40 0.43 0.42 0.42 0.45 0.48 0.48 0.48 0.44 0.38 0.41 0.43 0.45 0.46 0.45 0.41 0.39 0.39 0.39 0.33 0.29 0.26 0.29 0.42 0.43 0.39 0.34 0.32 0.31 0.47 0.42 0.36 0.34 0.33 0.33 0.31 0.27 0.27 0.26 0.27 0.34 0.39 0.35 0.33 0.26 0.28 0.30 0.32 0.33 0.35 0.34 0.35 0.33 0.33 0.37 0.36 0.36 0.35 0.42 0.56 0.61 0.54 0.56 0.62 0.59 0.57 0.58 0.60 0.61 0.64 0.66 0.74 0.86 0.97 1.00
0.39 0.41 0.55 0.32 0.32 0.36 0.38 0.40 0.45 0.55 0.52 0.58 0.45 0.46 0.43 0.40 0.43 0.42 0.45 0.41 0.44 0.43 0.40 0.38 0.41 0.39 0.42 0.44 0.42 0.38 0.37 0.36 0.33 0.40 0.32 0.27 0.34 0.45 0.42 0.38 0.33 0.31 0.48 0.36 0.35 0.36 0.36 0.31 0.33 0.33 0.29 0.32 0.35 0.41 0.40 0.37 0.30 0.30 0.29 0.29 0.30 0.32 0.34 0.34 0.32 0.30 0.38 0.37 0.34 0.43 0.46 0.42 0.43 0.47 0.48 0.50 0.55 0.60 0.59 0.57 0.58 0.61 0.63 0.65 0.73 0.87 0.90 0.95
0.44 0.56 0.57 0.64 0.48 0.37 0.35 0.39 0.44 0.47 0.53 0.53 0.54 0.54 0.47 0.43 0.42 0.40 0.47 0.45 0.47 0.47 0.37 0.38 0.39 0.41 0.43 0.46 0.48 0.41 0.38 0.34 0.35 0.36 0.41 0.34 0.34 0.49 0.44 0.40 0.35 0.40 0.34 0.34 0.36 0.34 0.34 0.29 0.32 0.32 0.34 0.33 0.35 0.36 0.36 0.35 0.30 0.30 0.34 0.33 0.31 0.31 0.32 0.32 0.34 0.36 0.37 0.36 0.34 0.48 0.53 0.51 0.51 0.49 0.49 0.51 0.54 0.57 0.59 0.59 0.60 0.61 0.63 0.64 0.66 0.82 0.94 0.90
0.52 0.49 0.47 0.57 0.46 0.56 0.54 0.60 0.60 0.55 0.55 0.55 0.49 0.53 0.47 0.43 0.40 0.42 0.45 0.46 0.42 0.43 0.42 0.35 0.36 0.39 0.40 0.49 0.50 0.46 0.48 0.37 0.33 0.37 0.41 0.37 0.34 0.42 0.42 0.41 0.40 0.47 0.35 0.35 0.36 0.35 0.33 0.32 0.36 0.35 0.32 0.33 0.32 0.30 0.33 0.33 0.38 0.36 0.34 0.35 0.37 0.36 0.35 0.36 0.37 0.38 0.37 0.37 0.40 0.49 0.55 0.55 0.58 0.57 0.57 0.58 0.63 0.64 0.63 0.61 0.56 0.52 0.51 0.53 0.55 0.68 0.87 0.90
0.45 0.35 0.49 0.50 0.48 0.50 0.56 0.59 0.58 0.55 0.48 0.54 0.47 0.51 0.47 0.46 0.41 0.47 0.50 0.50 0.44 0.42 0.52 0.40 0.41 0.42 0.49 0.52 0.53 0.50 0.61 0.58 0.66 0.44 0.63 0.51 0.41 0.46 0.44 0.44 0.45 0.51 0.46 0.36 0.35 0.38 0.32 0.32 0.33 0.35 0.33 0.33 0.35 0.34 0.32 0.35 0.37 0.36 0.37 0.37 0.36 0.37 0.38 0.39 0.39 0.38 0.36 0.36 0.41 0.48 0.47 0.49 0.61 0.63 0.58 0.60 0.72 0.68 0.61 0.53 0.49 0.47 0.47 0.48 0.55 0.63 0.71 0.82
0.41 0.45 0.45 0.38 0.37 0.44 0.49 0.44 0.42 0.41 0.39 0.45 0.47 0.48 0.49 0.49 0.48 0.53 0.53 0.51 0.51 0.60 0.57 0.51 0.54 0.57 0.53 0.49 0.52 0.59 0.64 0.61 0.61 0.59 0.59 0.56 0.51 0.60 0.51 0.46 0.47 0.46 0.45 0.44 0.44 0.46 0.40 0.35 0.40 0.36 0.34 0.35 0.39 0.35 0.38 0.40 0.36 0.32 0.31 0.32 0.33 0.34 0.33 0.35 0.36 0.39 0.38 0.38 0.43 0.48 0.45 0.47 0.60 0.61 0.57 0.59 0.67 0.65 0.57 0.53 0.54 0.57 0.55 0.51 0.60 0.63 0.63 0.72
0.46 0.52 0.52 0.46 0.40 0.56 0.43 0.44 0.44 0.45 0.37 0.48 0.51 0.49 0.50 0.50 0.51 0.54 0.45 0.50 0.52 0.57 0.59 0.54 0.54 0.50 0.51 0.49 0.59 0.60 0.63 0.66 0.65 0.64 0.62 0.61 0.61 0.64 0.62 0.66 0.52 0.53 0.52 0.48 0.48 0.45 0.48 0.42 0.38 0.42 0.36 0.34 0.38 0.40 0.41 0.39 0.36 0.33 0.31 0.32 0.35 0.35 0.35 0.35 0.39 0.43 0.44 0.44 0.48 0.47 0.49 0.56 0.56 0.58 0.59 0.61 0.60 0.56 0.53 0.51 0.52 0.57 0.61 0.62 0.60 0.57 0.55 0.61
Wind_Speed
13 13 13 13 13 13 14 14 14 13 13 14 13 13 14 14 14 14 14 14 14 13 13 13 12 12 11 10 10 9 9 8 8 8 10 9 8 8 8 8 10 11 11 10 10 9 8 7 7 6 5 4 4 4 5 5 5 4 3 4 5 5 6 5 5 6 8 8 8 7 7 7 8 9 9 9 9 8 8 9 9 9 9 11 12 14 14 13
14 14 14 14 14 14 14 14 14 14 14 14 14 14 14 14 14 14 14 14 14 14 13 12 11 11 10 9 9 8 8 8 9 10 11 10 9 9 9 9 11 12 12 11 11 10 8 8 7 7 5 5 5 6 6 5 4 3 3 5 5 6 7 6 6 7 8 8 8 7 7 7 7 7 7 7 8 8 8 9 9 10 11 12 13 13 12 12
15 15 15 15 15 15 15 15 15 15 15 15 15 15 15 15 14 14 15 15 14 14 12 12 11 10 9 8 8 7 7 8 9 10 10 10 11 10 10 10 12 13 13 12 11 10 9 7 7 7 6 6 6 6 6 6 5 3 3 4 5 6 7 7 7 8 9 8 8 7 7 7 6 6 6 6 8 8 8 8 8 9 10 12 13 12 12 12
16 16 16 15 15 15 15 15 15 15 15 15 15 15 15 15 15 15 15 15 14 13 12 11 10 9 8 7 7 6 6 7 8 8 8 10 11 11 11 11 13 13 13 12 11 10 9 6 7 8 6 6 6 6 6 7 4 3 4 5 5 6 6 6 7 8 9 9 8 7 7 6 5 5 6 6 6 6 7 7 8 9 10 12 12 12 12 11
17 17 16 16 16 16 16 16 16 16 16 16 15 15 15 15 15 15 15 14 13 12 11 10 9 8 7 7 6 5 5 4 3 4 6 9 10 11 12 12 14 14 13 12 11 10 9 8 8 8 7 5 6 6 7 7 4 3 6 6 5 6 6 6 8 9 9 9 8 7 7 6 5 5 5 5 5 5 6 7 8 9 10 11 12 12 11 11
18 18 17 17 17 16 16 16 16 16 16 16 16 16 16 16 15 15 15 13 12 11 10 9 9 8 7 6 6 6 6 2 0 3 6 8 10 11 12 12 14 14 14 13 12 11 10 9 9 9 7 5 7 7 7 6 4 4 5 4 4 5 6 8 9 9 9 9 8 7 6 6 6 6 6 5 6 6 7 7 8 9 10 11 11 11 11 10
18 18 18 18 17 17 17 17 17 17 17 17 16 16 16 16 16 15 14 12 11 11 10 10 9 8 7 7 6 6 8 6 2 3 5 7 10 12 12 13 14 14 14 13 13 12 11 11 10 9 7 5 7 7 8 6 4 5 5 5 5 6 8 9 9 9 9 9 8 7 6 7 7 6 7 7 7 7 8 8 8 9 10 10 10 10 10 9
18 19 19 19 18 18 18 17 17 17 17 17 17 16 16 16 16 15 13 12 11 11 10 10 10 9 8 7 7 7 9 8 4 4 4 7 11 12 12 14 15 15 15 14 13 12 11 12 10 9 7 6 8 7 8 7 4 6 6 6 6 8 9 10 9 10 9 8 8 7 7 8 8 8 8 8 8 7 8 9 9 9 9 10 9 9 9 8
18 19 19 19 19 19 18 18 18 18 18 18 17 17 16 16 15 14 13 12 11 11 10 11 10 10 9 9 9 8 7 7 5 4 5 7 10 13 13 14 16 15 15 14 14 12 11 11 11 9 6 6 9 8 9 7 5 7 7 7 8 9 10 10 10 10 9 8 7 8 8 9 9 9 9 8 8 8 9 9 10 9 9 9 9 9 8 7
19 19 19 19 19 19 19 19 18 18 18 18 18 17 17 16 15 14 13 12 11 11 10 11 11 11 11 10 10 9 6 7 6 6 6 7 11 13 14 15 16 16 15 14 14 13 12 11 10 9 6 6 9 9 8 8 7 8 8 9 9 10 9 9 10 10 9 8 7 8 8 9 9 8 8 8 8 8 9 9 10 9 9 9 8 8 7 7
20 19 19 19 19 20 20 19 19 19 19 19 18 18 17 16 15 14 12 12 12 11 10 10 10 11 12 12 12 9 6 7 7 7 7 8 11 13 15 15 15 16 15 14 14 13 12 10 9 9 6 8 11 10 8 7 9 9 9 11 10 10 10 9 10 9 7 7 7 8 8 8 8 8 8 8 8 8 9 9 9 9 8 8 8 7 7 6
20 20 20 19 19 20 20 20 20 19 19 19 19 18 17 16 15 14 13 12 12 11 10 10 10 11 11 12 14 10 6 7 8 8 8 9 11 13 15 15 15 16 14 14 14 14 12 9 12 12 7 9 10 9 8 8 10 10 10 11 10 10 9 9 9 7 7 7 7 7 8 8 7 8 8 8 8 8 8 9 9 9 8 8 7 7 6 6
21 20 20 20 20 20 20 20 20 20 20 20 19 19 18 17 16 14 13 13 12 12 11 10 10 11 12 12 14 12 8 8 9 9 9 10 11 12 14 15 16 15 14 14 13 14 13 9 13 12 8 11 9 7 9 11 11 11 11 10 10 10 9 9 7 7 8 7 7 5 5 6 7 7 8 8 8 8 8 8 8 8 8 7 7 6 6 6
21 21 21 21 20 20 20 20 20 20 20 20 19 19 18 17 16 15 14 13 13 13 12 11 10 11 13 12 11 13 11 9 9 10 11 11 11 13 14 14 15 15 14 13 13 14 13 11 12 10 9 11 9 8 11 12 11 11 11 10 9 9 9 9 7 8 8 6 6 4 4 5 6 7 8 7 8 8 8 8 8 8 7 7 6 6 6 6
21 21 21 21 21 21 20 20 20 20 20 20 20 20 19 18 17 15 14 14 14 14 13 12 12 12 13 13 12 12 12 12 11 12 12 12 12 14 15 15 15 15 14 12 13 14 13 13 12 11 11 10 9 12 11 11 10 10 10 10 10 8 8 9 8 9 6 5 5 3 3 5 6 7 7 7 7 7 7 8 8 7 7 6 6 6 6 6
21 22 22 22 21 21 21 20 20 20 20 21 20 20 19 18 17 16 16 15 15 14 13 12 12 13 12 11 12 14 14 14 13 14 13 12 13 14 16 16 15 15 14 12 13 14 13 14 12 11 13 11 12 14 11 10 11 10 10 10 11 9 8 9 9 8 6 5 5 3 4 4 5 7 7 7 7 7 7 7 8 7 7 6 6 6 6 6
21 21 22 22 22 22 21 21 20 20 20 21 21 20 19 18 18 17 16 16 16 15 14 13 12 14 14 12 13 16 16 15 14 15 14 13 13 15 16 15 15 15 14 13 14 14 14 14 11 9 12 13 13 14 12 12 11 11 10 10 11 11 9 9 9 9 6 6 5 3 5 5 6 7 8 8 7 7 6 7 7 7 7 6 6 6 6 5
21 21 22 22 23 22 22 21 21 20 20 20 21 20 19 19 19 18 16 15 16 15 15 14 13 13 14 16 16 17 18 16 15 16 15 15 13 15 17 15 14 15 15 14 14 15 14 13 11 10 12 13 14 14 13 12 11 11 11 10 11 12 10 9 9 10 8 7 5 4 4 6 7 7 8 8 7 6 6 6 7 7 7 6 6 5 5 5
22 22 22 22 23 23 22 22 21 21 20 20 20 19 18 18 18 18 18 17 17 17 15 14 17 13 10 15 17 16 18 17 17 17 17 16 14 15 17 15 15 16 15 15 16 16 14 12 12 12 12 14 15 15 14 12 11 12 12 11 12 12 11 10 8 10 10 7 6 5 5 7 7 7 8 8 7 6 6 6 6 7 7 6 6 5 5 5
23 23 23 22 22 23 23 22 22 21 20 20 18 18 18 17 17 17 18 20 20 20 18 16 19 17 12 14 17 16 17 18 18 18 18 18 16 16 18 16 15 16 15 15 16 16 15 13 13 13 13 15 16 15 15 13 10 11 13 12 12 12 11 11 9 9 9 8 7 6 6 8 7 7 8 8 8 7 7 7 6 7 7 6 6 6 6 5
24 24 23 23 23 22 23 23 22 22 21 20 18 18 18 16 17 17 17 20 22 23 22 20 20 20 15 14 17 18 18 19 19 18 18 19 18 17 17 17 16 15 16 16 16 16 15 14 14 14 14 14 15 15 15 13 9 10 13 13 13 12 12 13 11 9 9 8 8 7 7 8 9 8 9 9 8 8 8 7 7 7 7 7 7 7 6 5
25 24 24 23 23 22 22 22 23 22 21 20 19 19 18 16 17 18 18 20 21 22 23 22 21 21 19 17 17 19 20 21 21 20 19 21 20 18 17 18 17 15 16 17 15 16 16 15 15 15 14 13 14 15 15 13 11 11 12 13 13 12 12 13 12 9 9 9 8 9 8 9 10 9 9 10 9 8 9 8 8 8 8 8 8 7 7 6
25 24 24 23 23 23 22 22 23 22 21 20 20 20 19 17 18 19 20 21 21 22 24 24 23 22 21 21 19 21 23 22 22 21 21 22 21 19 18 18 17 16 17 17 16 16 16 16 16 16 15 14 13 14 14 12 12 12 12 13 13 12 12 12 11 11 11 10 9 9 9 10 10 10 10 10 10 9 9 10 9 9 9 9 9 8 8 7
25 24 24 23 23 23 22 22 21 20 20 20 21 21 19 18 18 18 20 22 22 23 24 24 24 23 23 22 20 23 24 23 23 23 23 23 22 20 18 18 18 17 17 18 17 16 16 16 17 17 16 14 13 13 13 12 12 13 14 13 13 13 12 11 11 11 12 12 11 9 9 10 11 11 11 11 11 11 10 11 11 10 10 10 9 9 9 8
25 24 24 23 23 22 22 21 18 17 18 20 21 20 19 18 17 17 18 20 22 22 24 24 24 23 23 22 21 24 24 24 24 24 24 24 22 20 18 18 18 17 18 19 17 15 15 16 19 19 16 15 15 14 14 13 11 12 15 15 15 14 12 12 13 12 11 12 13 12 11 11 12 13 12 11 12 12 11 12 12 12 11 11 11 11 10 9
24 24 23 23 22 22 21 18 16 16 18 20 19 17 17 17 16 16 17 19 20 21 22 23 23 23 24 23 22 24 24 24 25 24 25 26 23 20 17 17 18 17 18 18 16 14 14 16 18 18 16 16 16 15 15 15 12 11 14 16 16 13 11 12 13 12 11 12 12 14 13 11 12 13 13 13 14 13 13 14 14 14 13 13 13 12 12 11
24 24 23 23 21 20 18 17 17 18 18 17 17 17 17 17 16 15 16 18 20 21 22 22 21 21 23 24 24 24 23 23 25 25 27 27 24 21 18 18 18 17 17 17 16 15 14 16 17 17 17 16 16 15 15 15 13 8 10 15 15 13 12 12 10 11 12 12 11 13 14 13 13 12 13 14 15 15 14 15 15 15 15 15 15 14 13 13
24 23 23 22 21 20 19 19 19 19 19 17 17 18 17 17 17 15 16 17 18 20 21 21 21 21 23 24 25 26 22 21 25 25 27 27 25 22 19 19 19 17 17 17 17 15 14 16 18 18 18 16 16 16 15 16 14 7 5 11 13 13 13 13 11 12 12 12 11 12 13 14 13 13 13 14 16 16 16 16 16 17 17 17 17 16 15 14
24 23 22 22 22 21 19 19 20 20 20 18 18 19 18 18 18 17 17 18 17 18 20 21 22 23 24 24 26 28 23 22 24 24 27 29 25 22 20 19 20 18 17 19 18 15 15 17 18 18 17 16 16 16 16 18 14 8 8 10 11 12 13 13 12 13 12 11 13 14 13 13 13 14 14 15 15 16 16 16 16 18 19 19 18 18 17 15
24 23 22 22 21 19 18 19 21 21 20 19 19 19 19 19 18 18 19 18 17 18 19 21 23 25 26 25 27 28 24 23 24 24 27 28 26 24 21 19 20 19 17 20 19 13 14 17 17 18 17 15 16 14 15 17 12 8 10 11 10 11 11 11 12 12 12 12 14 16 16 14 13 13 14 15 15 15 15 16 17 18 19 20 19 19 18 17
25 24 22 21 20 19 19 18 18 18 18 18 18 19 19 19 19 20 19 17 17 19 19 22 24 26 27 27 27 27 24 23 25 26 27 27 26 25 22 19 20 20 18 21 19 14 14 18 17 18 16 13 15 15 13 14 12 9 11 11 10 10 9 10 11 11 12 13 13 16 17 17 14 13 13 13 14 14 15 16 17 18 20 20 20 20 19 18
25 24 23 22 22 21 21 20 18 17 17 17 18 19 19 20 21 22 20 15 16 19 20 23 25 26 28 27 27 27 25 23 25 27 27 26 26 25 24 21 20 21 20 21 19 15 15 18 19 19 17 14 15 15 14 14 13 12 12 11 11 10 9 10 11 11 12 13 12 13 14 15 14 14 15 14 14 14 14 14 15 17 19 20 20 20 20 19
25 24 23 22 22 21 22 21 20 20 20 18 19 19 20 21 22 23 22 17 15 17 19 22 25 26 28 28 27 28 26 24 25 26 27 27 25 26 26 24 22 21 20 20 19 16 15 19 21 19 18 18 16 15 14 14 14 14 13 12 12 11 9 10 11 11 12 13 12 12 12 13 13 13 15 16 14 13 13 13 15 15 17 19 20 20 20 20
25 24 23 21 21 22 22 21 20 20 20 20 20 20 22 23 22 22 23 20 16 15 18 22 25 26 28 28 27 28 26 24 26 27 27 28 26 26 26 26 26 22 19 20 19 16 17 18 20 20 18 19 18 16 14 13 14 14 14 13 13 12 11 10 10 11 11 11 11 11 10 12 13 10 10 11 11 13 12 12 14 14 15 17 19 20 20 20
25 23 21 21 21 22 21 21 20 20 21 21 21 22 24 23 22 22 21 20 18 17 19 22 24 26 28 27 27 29 27 24 26 27 27 28 26 26 26 26 27 25 20 19 18 17 18 17 18 20 19 20 20 17 15 14 14 14 14 14 14 13 12 11 10 11 11 9 9 10 10 12 12 9 10 10 10 12 11 12 14 14 15 17 18 19 20 20
23 21 20 20 20 20 20 20 20 21 22 22 22 24 24 23 22 21 18 17 17 18 21 22 24 25 26 27 27 29 29 25 26 28 26 28 27 26 27 25 27 27 22 18 17 16 17 17 19 21 20 21 21 18 16 15 13 12 13 15 14 13 12 12 12 12 12 11 10 10 12 12 11 11 12 11 10 11 11 11 13 14 15 17 17 18 20 20
20 19 20 20 20 19 20 19 20 21 22 23 24 25 24 23 24 22 18 16 17 18 20 21 24 26 25 26 26 29 29 26 27 28 26 28 27 27 28 26 26 28 25 19 17 17 16 14 19 23 20 20 21 19 18 17 15 12 12 14 14 12 11 11 11 10 10 11 12 12 12 11 11 10 10 10 10 11 10 10 11 12 14 15 16 18 19 20
19 19 20 20 20 19 20 19 20 21 22 24 25 26 24 23 24 24 20 19 19 20 20 20 22 25 25 25 25 28 29 26 27 28 26 26 27 27 29 26 26 28 26 21 16 17 17 14 17 21 20 19 19 19 19 19 18 14 11 11 14 13 12 11 11 10 9 10 11 11 12 12 11 10 9 10 10 9 9 9 10 11 12 14 15 17 19 20
19 18 18 17 18 18 19 19 20 22 23 24 25 25 25 24 24 24 22 21 21 20 21 20 20 24 26 26 25 27 29 27 27 27 26 25 25 28 29 26 26 29 28 23 16 15 18 17 16 19 20 19 18 20 19 18 19 17 12 11 13 13 12 11 11 11 10 10 10 10 9 9 10 10 9 8 7 7 8 9 10 11 12 13 14 16 18 19
18 17 16 15 17 17 18 19 21 22 23 25 24 24 25 25 25 24 23 23 23 21 21 21 19 22 25 27 25 26 29 28 27 27 26 25 25 27 29 26 24 27 29 27 20 14 16 18 16 17 19 19 19 20 20 19 19 19 17 14 14 13 11 10 11 12 11 10 9 9 8 6 6 7 7 6 6 7 8 9 10 11 12 12 13 15 16 18
17 17 16 16 17 17 18 19 21 22 23 24 25 25 24 24 25 26 25 24 24 23 22 21 19 19 22 26 26 25 27 29 28 26 26 27 25 24 27 28 25 24 26 28 25 18 16 17 16 16 18 18 19 21 22 21 20 19 18 18 16 15 13 12 12 13 12 12 10 10 9 7 5 6 7 6 7 8 8 9 10 10 11 12 13 14 15 16
17 17 15 16 17 18 19 19 20 21 22 23 24 25 24 22 24 26 25 24 25 24 24 23 21 19 19 24 27 25 26 28 29 28 26 27 27 23 24 29 28 25 24 25 26 22 18 18 18 18 17 17 19 22 23 23 21 18 18 19 18 17 16 14 13 13 13 13 12 11 10 7 7 7 8 7 7 8 8 9 10 10 10 11 12 13 14 15
18 17 15 16 17 18 19 19 19 21 22 23 24 25 24 23 24 26 25 24 24 24 25 24 24 23 21 22 25 25 25 27 29 29 27 27 28 25 24 28 29 27 24 23 24 24 21 20 20 20 18 17 17 19 21 22 21 19 18 19 18 18 17 16 15 13 12 12 11 11 10 8 7 8 7 7 8 8 9 9 10 10 11 12 12 13 13 14
18 18 17 17 18 19 19 18 19 20 21 22 24 25 25 23 24 26 26 25 24 24 25 25 25 24 23 23 24 25 25 26 28 29 28 26 26 25 24 26 28 27 25 23 22 22 23 22 21 20 19 18 17 17 19 21 22 20 19 19 20 20 19 18 16 13 12 13 13 12 11 9 8 8 7 8 9 9 9 10 11 12 12 12 13 13 13 13
17 18 18 19 19 20 21 20 18 18 20 23 25 25 26 25 25 26 26 24 24 24 24 25 24 23 23 23 24 25 26 26 25 27 28 25 22 23 25 25 26 25 24 22 21 22 23 23 22 22 21 20 20 18 18 20 20 21 22 22 22 22 21 20 17 15 15 16 16 16 14 10 9 9 8 9 11 11 11 12 13 13 13 13 14 14 14 14
16 16 17 19 20 21 22 21 20 18 18 21 24 25 26 25 25 27 27 25 23 24 24 24 24 23 23 24 25 26 27 27 25 25 28 28 23 22 25 25 26 25 21 20 21 21 21 22 24 25 25 23 21 19 18 19 20 22 24 25 24 24 23 22 20 19 17 16 17 17 16 14 13 12 11 10 11 12 13 14 14 15 15 15 15 16 16 15
16 15 15 16 18 20 21 22 22 20 18 18 20 22 25 25 24 25 26 26 24 24 25 25 25 25 24 24 25 26 27 28 26 23 27 30 25 22 23 25 26 24 21 21 24 22 20 22 24 26 27 26 23 21 21 22 23 23 24 26 26 25 25 24 24 22 19 18 18 17 17 19 19 16 15 14 13 13 15 16 16 16 17 17 17 17 18 17
17 16 16 16 16 18 19 20 21 22 21 19 18 19 22 24 25 24 24 25 25 24 24 26 27 27 26 24 24 24 25 28 29 25 24 28 27 21 22 25 26 25 24 24 26 24 22 23 24 24 26 27 26 25 24 23 23 24 24 25 26 26 26 25 25 24 22 21 19 16 16 19 19 17 17 17 16 16 17 17 18 18 18 19 19 19 19 19
17 17 17 17 18 18 17 17 18 20 21 20 19 20 21 23 24 24 22 23 24 25 24 25 27 27 26 25 24 23 23 24 28 27 22 24 27 23 21 24 25 24 25 26 26 26 24 24 24 25 26 27 28 28 27 24 22 24 25 26 25 25 26 26 26 26 25 24 21 19 19 20 18 18 19 18 18 18 19 19 20 20 21 21 20 20 20 20
17 17 17 18 20 20 19 18 18 19 21 20 20 21 22 23 23 22 22 23 23 23 23 25 26 25 24 25 24 23 21 20 22 24 21 21 24 23 21 23 23 23 25 25 24 26 25 24 24 25 25 25 26 27 27 25 25 25 27 27 26 26 26 26 26 25 25 24 22 21 22 21 19 19 21 19 17 18 19 20 21 21 22 22 21 21 21 21
17 18 18 18 19 20 20 20 19 19 20 20 21 22 22 23 23 21 22 23 22 21 21 22 23 23 24 25 24 22 21 20 21 22 21 20 21 22 21 21 22 22 24 24 23 23 24 24 24 24 23 24 25 25 25 26 27 28 29 28 28 28 27 26 25 25 24 23 20 20 21 21 19 19 19 18 17 19 20 20 21 21 21 22 22 21 22 22
16 17 18 19 20 19 19 20 20 19 19 18 19 20 21 21 21 21 22 23 24 23 22 22 22 23 23 24 23 22 21 21 21 21 22 22 22 22 22 21 22 22 21 23 23 22 23 23 22 23 23 24 25 25 25 25 26 27 27 28 28 28 27 26 25 24 22 20 20 20 20 19 18 18 19 19 20 20 21 21 22 22 22 22 23 23 23 22
Wind_Direction
293 289 285 283 282 281 280 280 281 284 286 289 293 296 298 299 300 300 298 295 292 289 287 286 284 284 284 282 281 279 276 272 262 248 240 234 223 213 207 198 190 185 184 181 180 179 178 178 176 173 164 157 146 139 137 133 138 127 97 102 106 105 109 106 104 119 127 122 122 117 107 105 108 109 112 116 112 113 115 112 116 115 118 127 129 130 134 133
293 290 286 284 282 281 280 279 281 282 284 287 290 294 296 297 298 298 297 294 290 288 286 284 283 282 283 281 279 278 273 265 258 252 242 227 215 210 205 198 188 183 181 180 181 179 177 171 169 170 160 157 148 139 136 130 141 137 106 103 96 93 99 103 104 119 128 123 125 119 108 108 111 115 121 120 113 116 119 118 120 118 120 126 130 134 137 138
293 290 287 285 283 281 280 280 280 281 283 285 288 292 294 295 296 296 296 293 290 287 284 282 281 280 279 278 276 274 272 267 258 252 239 219 210 209 203 197 189 183 182 181 182 181 182 176 169 169 166 166 153 145 143 133 129 114 123 122 96 96 101 102 107 117 122 123 125 116 107 109 108 120 127 121 117 119 122 125 131 129 132 135 136 139 140 143
293 291 288 285 283 282 281 281 280 280 282 283 286 289 292 294 293 295 295 292 288 282 279 278 277 275 274 274 271 268 270 269 257 244 227 209 204 203 199 194 188 185 184 185 185 186 192 190 174 168 173 174 153 153 151 139 131 82 98 122 107 109 105 98 108 115 121 122 119 113 110 106 102 117 130 133 124 117 127 134 137 136 138 142 142 143 145 148
293 292 288 285 283 282 281 281 281 280 281 282 284 287 289 292 292 294 293 291 285 277 274 272 271 269 268 267 261 259 257 263 252 221 204 199 197 194 193 191 187 185 184 188 190 189 193 190 179 173 182 181 156 162 160 149 158 104 95 103 101 109 106 104 112 113 120 121 116 114 106 97 100 104 112 137 123 110 130 136 137 137 137 142 147 148 149 151
291 291 289 286 283 282 281 281 281 279 280 280 282 284 287 290 291 293 291 288 280 272 268 265 265 262 262 259 251 243 229 230 198 189 189 192 192 189 188 186 184 184 184 189 190 188 190 188 184 178 182 184 166 167 160 151 170 141 114 109 102 108 112 113 116 118 121 119 113 108 99 95 104 97 85 101 107 108 125 132 135 137 139 142 147 152 154 153
290 291 290 287 284 281 281 281 280 279 279 279 281 282 285 287 289 291 288 282 275 269 264 261 261 256 256 250 242 231 225 242 244 185 184 186 187 185 184 182 181 182 185 189 188 187 188 186 185 183 186 182 172 170 159 158 167 142 125 122 115 112 119 119 120 121 115 111 107 105 103 96 99 101 95 99 107 114 123 130 132 133 140 144 147 153 155 155
288 290 290 288 285 282 280 281 280 279 278 278 280 281 283 284 286 288 283 276 270 266 262 260 256 251 247 240 237 230 228 235 216 183 183 182 182 182 181 180 180 181 185 187 186 186 186 187 187 185 188 181 180 174 161 167 160 141 132 124 124 120 123 122 120 117 111 109 105 101 99 93 96 101 99 103 111 118 126 132 131 133 139 143 147 151 153 158
287 288 289 288 286 283 280 280 279 278 277 277 279 280 281 281 282 284 278 270 265 263 261 258 253 245 238 233 234 234 225 209 194 190 187 180 178 180 180 179 179 181 185 185 185 187 185 188 190 189 195 184 180 172 171 180 147 134 142 135 132 127 126 127 123 118 113 108 102 103 100 97 102 102 97 102 110 118 129 135 135 137 140 143 147 148 151 159
287 287 288 288 286 284 281 280 279 277 276 277 278 279 279 278 278 279 274 265 260 259 260 256 249 238 230 228 229 227 215 203 201 197 191 182 175 178 182 180 179 181 184 184 187 190 184 186 191 191 201 187 176 168 174 184 153 140 148 142 136 132 130 130 125 118 112 103 102 108 105 107 110 103 99 103 110 118 128 135 139 142 143 146 148 147 155 162
287 287 287 287 285 284 282 280 279 276 275 276 277 277 277 275 274 273 268 260 256 256 257 254 244 232 226 226 224 219 213 212 204 196 197 185 177 180 183 182 181 182 184 185 188 186 184 191 186 177 178 173 172 170 165 163 156 151 149 144 141 138 131 128 124 119 115 106 105 107 106 113 110 101 104 110 113 118 127 134 139 142 143 146 147 149 161 164
285 286 287 287 285 283 282 280 279 276 275 274 275 276 274 272 270 267 262 256 251 250 251 248 238 227 225 225 222 218 215 211 197 195 197 186 183 182 181 183 183 183 184 185 187 186 188 191 183 181 175 166 169 175 169 156 153 154 154 151 146 141 136 136 131 125 123 112 112 115 109 107 103 105 112 116 118 120 128 135 140 141 141 144 144 150 163 163
285 285 286 287 285 283 282 280 279 277 274 273 274 274 271 268 266 261 256 251 246 246 246 242 235 227 224 225 221 216 214 206 194 192 192 186 186 182 183 185 184 187 187 186 187 187 190 186 183 190 189 178 171 166 169 162 155 160 164 159 154 151 149 151 143 135 130 116 121 128 113 104 106 119 123 123 123 124 129 136 142 143 143 145 143 151 160 160
285 284 284 286 286 284 281 279 279 277 274 273 273 272 269 265 261 257 252 247 241 241 241 238 237 228 223 224 218 211 211 205 195 190 188 187 187 184 184 184 185 188 186 188 189 186 190 187 187 193 189 187 176 161 165 164 163 168 167 166 170 166 158 160 160 155 142 129 140 131 108 116 120 130 135 135 131 129 132 136 142 145 146 147 146 150 153 155
287 284 284 284 284 283 282 279 278 277 274 272 271 271 266 260 257 252 248 244 237 237 239 237 235 226 225 227 216 208 207 204 198 192 188 189 188 184 183 183 184 185 183 188 186 184 188 187 190 192 185 186 179 174 171 169 174 175 173 178 183 179 168 169 177 178 167 160 176 156 111 123 131 140 144 145 142 137 137 139 144 149 151 149 148 150 148 152
291 287 284 283 283 282 281 280 277 276 274 272 271 269 263 257 252 248 247 242 233 233 235 233 229 224 228 225 210 205 203 202 199 192 190 191 188 184 182 183 183 184 186 185 180 183 187 187 194 197 189 187 183 181 176 178 184 184 188 191 189 189 181 177 184 192 188 175 185 185 162 146 141 150 153 154 153 147 143 145 150 152 156 154 150 152 149 153
295 291 286 283 282 281 280 278 277 276 274 272 271 266 258 253 249 245 244 237 230 229 230 232 229 225 227 223 212 206 202 200 196 190 191 191 189 184 182 183 184 184 186 183 180 184 187 189 195 195 191 191 188 187 185 187 189 189 196 197 194 198 191 182 189 195 196 194 198 190 171 158 153 159 161 162 162 157 150 149 154 156 160 163 159 157 155 157
296 294 290 285 281 280 279 277 276 275 273 272 269 262 256 251 247 242 238 231 226 226 229 230 224 222 226 221 214 206 201 199 194 191 192 192 191 186 183 185 185 184 185 185 184 186 186 189 193 190 190 193 192 193 195 193 191 196 201 199 199 203 198 192 193 192 193 200 206 197 168 159 162 167 168 170 170 166 160 155 156 158 162 169 170 166 162 165
295 294 292 287 282 280 278 276 274 273 273 271 265 259 253 247 242 237 231 226 223 222 224 220 213 218 225 212 207 203 199 197 194 193 193 192 192 188 186 188 187 187 187 186 186 188 188 190 196 198 194 197 197 197 201 197 193 201 206 203 201 201 201 202 196 188 194 204 205 201 181 169 173 176 175 178 176 174 171 167 165 163 165 170 174 172 168 170
294 293 292 289 285 281 277 275 272 271 270 267 261 253 248 245 238 231 228 226 226 228 230 225 216 220 224 208 201 198 195 196 196 195 194 193 192 189 190 191 190 192 192 189 187 189 192 196 200 203 199 201 203 202 203 204 203 205 207 206 201 198 202 205 198 186 196 214 213 207 193 180 184 188 186 186 184 185 183 180 180 176 172 172 175 177 174 173
293 292 291 289 286 282 279 275 270 269 266 260 255 249 247 247 240 235 236 233 230 229 230 229 223 222 222 210 201 199 198 199 199 198 195 194 194 192 193 193 193 195 197 194 190 191 199 203 203 205 204 203 205 207 208 217 231 217 208 208 203 202 207 205 197 191 204 222 216 205 204 196 197 202 197 194 194 195 194 191 192 190 186 182 181 181 180 181
292 291 291 289 286 283 281 276 270 267 262 253 247 244 245 247 241 240 243 240 235 230 227 226 224 222 219 212 206 204 203 201 199 199 196 194 195 195 193 195 197 197 197 197 194 195 204 210 206 204 207 205 205 209 213 223 231 220 210 209 208 205 202 198 196 199 212 226 218 208 218 216 205 207 207 204 206 206 204 203 201 199 197 192 189 187 187 187
291 291 290 289 286 283 280 277 271 264 255 246 242 243 246 248 243 241 240 238 238 232 225 222 221 219 216 215 212 207 205 203 201 199 195 195 196 196 195 197 199 198 198 200 200 198 204 212 208 203 207 210 207 208 213 218 217 218 215 208 210 206 193 196 206 211 217 226 225 217 225 223 207 208 214 214 216 213 210 210 208 207 205 202 198 194 195 193
291 291 290 288 286 282 279 278 271 258 246 243 244 244 246 247 244 244 241 237 237 231 224 221 219 219 216 213 212 208 207 205 203 200 196 196 197 198 201 200 200 202 202 204 206 205 208 211 209 208 209 209 208 207 209 215 212 217 220 212 213 209 202 216 220 214 218 226 229 227 230 227 214 213 217 220 223 218 215 216 214 213 211 210 207 203 204 202
289 289 289 288 286 282 279 273 261 252 248 246 246 242 240 242 242 243 241 236 235 228 221 219 217 218 214 210 209 207 207 207 205 202 198 198 198 197 202 202 203 206 203 204 209 211 212 207 206 211 209 204 209 209 207 214 214 217 220 218 221 215 210 222 216 208 222 230 229 229 234 233 221 218 222 225 226 224 223 221 220 219 216 215 213 212 212 209
288 288 288 287 285 283 276 262 252 256 256 247 242 237 235 238 241 242 237 234 231 220 213 213 213 213 209 207 206 203 206 209 206 203 199 200 200 199 203 203 204 209 204 203 209 215 214 206 204 208 206 203 210 211 207 211 217 224 217 216 228 230 223 225 212 208 231 240 229 225 234 241 232 228 230 229 226 227 229 226 223 223 222 221 218 216 218 216
287 285 286 284 283 281 269 256 256 259 253 244 238 237 237 237 239 237 231 232 228 215 209 209 208 207 205 205 203 201 205 204 202 202 200 200 201 203 206 202 203 210 205 201 209 215 211 203 200 202 203 205 209 210 205 205 213 231 218 208 220 231 233 235 221 217 239 246 229 222 233 243 241 235 231 230 229 228 231 230 227 226 226 225 223 220 221 220
285 283 283 281 280 275 261 255 259 254 248 246 242 238 238 237 236 230 227 230 222 210 209 208 207 207 205 204 201 202 204 199 199 201 198 199 202 204 209 207 205 209 206 203 207 207 203 200 199 201 205 206 207 208 203 203 210 224 224 210 212 224 235 240 234 232 241 243 231 228 237 244 244 240 232 232 233 231 233 235 232 229 227 226 224 223 222 222
284 282 280 279 278 270 257 251 252 251 247 247 243 237 236 236 232 225 226 228 218 211 212 208 207 207 203 201 201 203 206 201 200 198 195 199 204 205 209 209 207 209 209 207 206 204 204 206 204 201 204 204 204 209 204 204 213 217 219 219 216 226 237 237 236 237 235 234 237 239 239 242 245 244 237 232 234 235 236 238 237 233 230 227 225 224 223 223
282 280 278 277 274 264 256 251 248 249 247 244 240 236 235 233 226 223 223 224 219 213 210 208 207 205 202 201 201 203 205 202 200 196 195 200 204 206 210 210 210 210 209 207 209 213 206 204 204 200 203 206 205 207 204 203 213 217 213 218 220 225 233 232 234 240 239 236 242 244 239 237 244 247 240 232 234 241 241 240 239 236 231 227 226 224 223 225
280 278 275 273 267 260 256 250 245 245 243 239 236 232 232 227 222 223 221 221 220 212 208 208 205 203 203 201 200 202 203 203 200 197 197 200 202 205 208 210 209 207 205 206 211 216 203 198 201 201 204 208 201 200 202 204 212 218 213 214 216 216 223 233 234 238 245 247 248 247 237 231 239 248 246 238 233 238 242 241 239 235 231 228 227 226 225 226
279 276 273 268 262 256 250 245 243 244 240 237 232 228 227 222 220 221 219 219 219 213 212 209 204 203 203 202 201 201 203 203 199 198 199 200 203 205 206 206 204 203 202 202 204 209 206 202 202 202 206 209 202 200 206 208 211 216 214 212 213 213 220 233 234 233 244 250 250 249 240 236 244 250 250 248 241 235 237 242 243 236 230 228 227 228 227 227
278 275 271 264 257 251 247 245 245 243 239 234 230 226 224 223 221 218 218 219 215 213 213 205 202 203 202 202 203 201 203 203 199 200 201 202 204 205 207 207 205 204 201 199 201 203 204 203 202 203 206 209 208 205 206 209 210 214 215 213 216 221 225 231 235 239 247 250 245 238 239 248 258 256 248 246 248 247 240 240 247 241 232 229 227 228 228 227
277 273 267 260 253 249 246 244 241 237 234 229 225 223 223 225 222 218 220 221 215 214 212 204 202 203 202 205 204 200 204 204 200 201 201 202 205 205 206 207 205 205 202 199 203 204 202 202 202 205 206 206 210 210 208 209 211 215 219 221 224 228 232 238 241 242 247 252 241 226 234 254 260 258 249 245 250 255 249 241 243 241 235 232 228 227 229 229
276 269 262 256 251 248 243 239 235 231 227 223 222 223 223 222 219 218 221 222 219 216 212 208 205 204 203 207 206 202 205 205 200 201 201 202 206 204 204 205 203 203 201 199 206 208 207 208 205 207 207 205 210 213 210 211 213 216 222 226 227 229 236 247 252 251 254 260 243 228 245 260 257 251 246 247 247 248 251 247 242 239 238 237 231 228 231 232
271 265 259 252 248 244 238 233 230 226 222 220 221 222 223 222 217 216 217 220 225 217 207 207 207 206 204 206 207 203 205 207 201 201 204 204 206 205 203 204 203 204 205 204 205 206 212 215 205 204 208 207 211 215 212 214 216 215 220 226 227 230 237 247 252 250 252 258 249 241 251 255 255 253 238 233 240 242 246 248 243 239 238 238 235 232 235 235
265 261 257 250 244 239 232 228 225 222 220 221 222 223 223 222 218 217 217 220 226 216 206 207 207 207 205 205 207 203 202 207 203 202 205 205 206 206 203 205 205 208 211 211 211 210 216 215 198 199 210 210 211 216 215 217 220 219 221 224 223 227 238 250 253 243 238 248 250 249 251 250 255 255 226 217 236 241 239 245 248 244 239 240 241 238 238 238
261 260 256 247 239 232 227 225 222 219 220 221 224 224 224 223 220 219 221 222 222 216 213 213 207 207 207 205 206 202 201 204 203 203 206 205 206 206 204 205 205 207 210 213 217 215 214 210 196 203 213 211 211 217 217 218 221 225 231 227 224 226 232 238 243 241 237 243 251 249 248 250 253 246 222 222 239 243 238 245 254 250 242 243 246 243 241 240
257 254 250 238 228 225 224 223 221 219 221 222 223 223 223 224 222 220 221 221 221 217 216 218 211 208 210 208 206 203 203 205 203 204 207 205 205 205 205 206 205 205 207 210 215 214 212 213 210 210 212 210 213 218 218 216 216 224 234 232 227 229 234 233 231 239 245 246 253 252 248 256 254 232 214 213 225 243 250 250 257 260 252 248 249 248 246 243
251 246 239 226 222 225 222 221 221 220 222 223 224 222 221 224 224 223 221 219 220 218 216 218 217 211 210 210 209 206 205 207 206 205 207 205 203 203 205 207 205 205 207 211 216 219 214 216 219 213 207 210 218 219 219 217 213 219 228 229 225 226 236 240 231 232 242 249 258 258 253 260 249 218 206 209 229 251 262 260 261 264 263 257 252 251 251 249
247 241 234 224 224 224 219 220 222 221 223 224 224 223 223 224 224 223 222 219 219 220 218 219 220 215 211 210 211 208 205 207 209 207 206 205 204 205 207 209 207 205 207 212 216 220 216 215 219 214 208 217 224 219 219 220 217 219 224 228 231 230 232 238 236 232 240 249 253 254 254 246 222 220 226 232 244 253 260 266 265 263 268 268 259 254 255 253
240 235 230 224 223 219 217 223 224 222 225 224 223 223 222 223 223 221 221 219 218 219 218 218 218 218 216 211 210 211 208 207 209 209 208 207 207 209 209 210 210 209 210 213 216 218 219 220 221 219 219 228 228 220 218 221 224 228 227 226 230 232 231 234 239 239 241 246 247 249 254 241 219 229 235 236 252 262 263 269 270 268 275 275 264 258 256 253
234 235 231 223 220 217 219 225 224 224 226 225 224 223 221 222 222 221 220 219 218 217 216 217 217 218 219 215 212 214 212 208 209 209 209 210 211 212 210 208 209 211 212 214 216 217 220 222 224 226 228 230 226 221 218 219 225 231 230 226 227 230 231 233 239 245 243 241 242 245 247 235 225 237 242 244 258 267 266 266 269 275 284 279 267 261 257 254
238 240 234 223 217 219 222 224 223 225 226 225 224 223 221 222 222 220 220 219 219 218 216 217 218 219 220 218 216 216 214 211 210 210 210 211 211 210 207 204 207 211 212 215 217 217 219 221 223 226 228 223 220 219 217 219 225 229 230 231 230 231 232 232 235 241 240 235 236 243 245 238 233 242 250 254 260 267 269 265 266 275 284 282 270 262 259 255
240 237 231 224 219 221 223 223 226 230 227 224 224 222 222 223 223 220 220 221 220 219 218 216 218 219 219 218 217 217 216 213 212 211 211 211 208 207 206 204 207 211 213 217 221 220 219 221 222 223 225 223 221 221 220 223 226 228 230 232 233 233 234 234 234 236 239 240 242 247 247 234 223 235 251 260 264 270 272 271 271 274 280 281 273 264 260 258
236 231 227 223 221 222 224 226 231 233 229 226 224 223 223 223 222 220 220 222 222 221 220 218 217 218 218 218 218 218 217 216 215 214 213 211 209 208 210 209 210 213 214 217 220 219 219 223 224 224 228 231 230 229 228 228 228 227 229 232 235 235 235 237 239 240 242 244 245 248 248 238 232 242 257 265 266 267 271 277 278 276 278 281 276 266 260 258
229 230 229 224 220 221 223 226 227 227 227 228 224 221 222 222 219 217 217 220 222 221 221 221 219 218 219 219 219 219 217 215 215 217 214 212 211 210 212 214 214 214 216 218 219 219 223 227 225 224 229 236 236 233 232 232 231 230 229 231 234 236 236 237 240 242 243 245 246 247 247 248 248 253 263 271 274 273 275 279 280 279 280 280 277 269 261 258
229 233 232 225 221 221 222 224 225 225 226 229 225 221 220 220 219 218 216 218 220 220 220 220 219 219 220 219 219 221 220 215 214 215 214 213 213 213 213 215 216 215 217 220 220 221 227 230 228 228 231 235 238 238 238 237 235 233 233 232 233 235 236 238 240 242 243 246 248 244 243 250 253 255 263 272 277 277 278 279 280 282 282 280 277 271 264 260
233 234 231 226 225 227 229 228 226 226 227 228 225 222 221 220 221 220 219 219 219 219 220 220 219 218 218 217 217 220 221 218 214 214 217 218 216 215 213 214 215 215 218 221 221 222 228 231 230 232 234 234 235 236 238 240 238 236 237 236 236 235 235 236 241 243 244 247 247 243 245 253 255 258 266 272 275 277 279 279 280 282 282 279 276 271 266 262
235 233 232 232 230 230 232 230 227 227 227 227 225 224 223 223 222 221 218 218 220 218 217 219 220 218 218 217 218 218 217 218 217 216 221 223 217 216 218 216 216 217 219 222 222 222 227 230 231 234 237 236 235 234 235 237 239 240 241 240 239 239 239 240 242 243 246 248 245 243 249 255 256 261 267 267 268 274 278 279 281 282 282 279 276 272 267 263
238 235 234 233 230 228 229 229 228 228 227 225 225 224 224 223 222 221 217 217 220 219 216 219 220 219 220 219 217 217 216 218 221 220 222 224 220 221 223 219 218 219 217 220 223 222 226 231 232 234 237 238 238 237 237 239 243 244 243 241 240 241 243 244 243 244 249 249 243 244 252 257 259 263 265 264 267 275 280 282 283 283 282 279 276 273 269 265
240 236 234 232 229 228 228 226 225 226 225 224 223 221 221 221 221 222 221 219 219 220 220 222 223 221 220 218 216 219 220 221 223 224 223 225 225 225 225 222 222 222 219 220 223 223 226 230 232 232 235 237 238 239 239 242 244 243 241 240 241 242 243 245 243 245 249 249 246 249 255 258 261 263 265 267 272 277 281 284 284 285 284 281 276 273 269 266